QPF
0.09 0.08 0.11 0.10 0.08 0.08 0.08 0.11 0.10 0.08 0.07 0.05 0.03 0.03 0.03 0.03 0.02 0.03 0.05 0.06 0.07 0.06 0.07 0.07 0.07 0.08 0.07 0.05 0.04 0.04 0.03 0.05 0.07 0.08 0.09 0.09 0.09 0.08
0.13 0.11 0.09 0.09 0.09 0.09 0.09 0.10 0.10 0.10 0.07 0.04 0.03 0.02 0.02 0.03 0.04 0.04 0.07 0.07 0.07 0.06 0.05 0.05 0.06 0.08 0.07 0.05 0.04 0.03 0.02 0.02 0.03 0.04 0.05 0.05 0.06 0.05
0.08 0.07 0.06 0.06 0.06 0.05 0.05 0.06 0.07 0.08 0.07 0.04 0.04 0.03 0.03 0.04 0.05 0.07 0.10 0.10 0.08 0.06 0.05 0.05 0.04 0.06 0.07 0.04 0.03 0.02 0.01 0.01 0.01 0.02 0.04 0.04 0.03 0.02
0.04 0.04 0.05 0.04 0.04 0.04 0.04 0.04 0.05 0.06 0.06 0.05 0.05 0.03 0.03 0.07 0.11 0.10 0.11 0.10 0.08 0.06 0.05 0.04 0.04 0.04 0.04 0.05 0.03 0.02 0.01 0.01 0.01 0.02 0.04 0.03 0.02 0.02
0.06 0.05 0.05 0.04 0.04 0.04 0.04 0.04 0.04 0.05 0.05 0.05 0.05 0.04 0.04 0.06 0.14 0.14 0.13 0.10 0.07 0.07 0.05 0.04 0.04 0.03 0.03 0.04 0.05 0.03 0.02 0.02 0.02 0.02 0.02 0.01 0.01 0.01
0.04 0.05 0.04 0.03 0.03 0.04 0.04 0.05 0.06 0.05 0.05 0.04 0.04 0.05 0.05 0.06 0.10 0.15 0.15 0.13 0.10 0.07 0.05 0.04 0.04 0.04 0.04 0.04 0.05 0.05 0.03 0.02 0.02 0.02 0.01 0.01 0.01 0.01
0.03 0.03 0.04 0.03 0.03 0.02 0.03 0.05 0.05 0.05 0.04 0.04 0.04 0.04 0.04 0.05 0.06 0.13 0.15 0.15 0.14 0.10 0.05 0.03 0.03 0.03 0.04 0.05 0.05 0.04 0.04 0.03 0.03 0.02 0.02 0.01 0.01 0.01
0.03 0.02 0.02 0.02 0.02 0.02 0.02 0.02 0.03 0.04 0.05 0.05 0.05 0.04 0.05 0.05 0.06 0.11 0.15 0.15 0.15 0.11 0.07 0.05 0.04 0.03 0.03 0.04 0.04 0.03 0.02 0.03 0.03 0.03 0.03 0.03 0.02 0.01
0.02 0.01 0.01 0.01 0.02 0.02 0.02 0.02 0.02 0.03 0.03 0.04 0.05 0.06 0.06 0.06 0.06 0.10 0.15 0.14 0.12 0.10 0.07 0.06 0.05 0.04 0.03 0.03 0.03 0.03 0.04 0.03 0.04 0.04 0.04 0.04 0.03 0.03
0.02 0.02 0.02 0.03 0.03 0.03 0.02 0.02 0.02 0.02 0.02 0.02 0.05 0.07 0.06 0.07 0.09 0.10 0.15 0.15 0.12 0.10 0.06 0.06 0.05 0.05 0.03 0.03 0.02 0.02 0.04 0.04 0.04 0.04 0.04 0.03 0.03 0.03
0.03 0.02 0.03 0.03 0.03 0.02 0.04 0.04 0.03 0.02 0.01 0.01 0.02 0.03 0.04 0.05 0.07 0.09 0.12 0.15 0.13 0.11 0.07 0.06 0.05 0.05 0.04 0.03 0.02 0.02 0.02 0.02 0.02 0.02 0.03 0.03 0.03 0.03
0.03 0.03 0.03 0.03 0.03 0.03 0.03 0.04 0.04 0.03 0.03 0.02 0.02 0.01 0.01 0.02 0.03 0.05 0.07 0.12 0.13 0.11 0.08 0.06 0.05 0.04 0.05 0.04 0.03 0.01 0.01 0.01 0.01 0.01 0.01 0.02 0.02 0.02
0.04 0.03 0.03 0.03 0.03 0.03 0.03 0.04 0.05 0.05 0.05 0.04 0.03 0.03 0.03 0.04 0.03 0.03 0.05 0.07 0.09 0.09 0.06 0.04 0.04 0.03 0.04 0.04 0.04 0.03 0.02 0.01 0.00 0.00 0.00 0.01 0.01 0.01
0.03 0.03 0.02 0.02 0.02 0.03 0.02 0.03 0.05 0.05 0.04 0.04 0.04 0.05 0.04 0.05 0.04 0.03 0.03 0.04 0.06 0.07 0.06 0.04 0.05 0.04 0.04 0.04 0.03 0.03 0.03 0.02 0.01 0.01 0.00 0.00 0.00 0.00
0.01 0.01 0.01 0.02 0.02 0.02 0.02 0.03 0.03 0.03 0.04 0.04 0.04 0.05 0.04 0.04 0.04 0.04 0.04 0.04 0.05 0.05 0.04 0.04 0.05 0.05 0.05 0.04 0.03 0.02 0.02 0.02 0.01 0.01 0.01 0.01 0.01 0.01
0.00 0.01 0.01 0.01 0.02 0.02 0.02 0.03 0.03 0.03 0.03 0.04 0.04 0.04 0.04 0.03 0.03 0.04 0.04 0.04 0.05 0.06 0.05 0.04 0.05 0.06 0.05 0.04 0.03 0.02 0.01 0.01 0.01 0.01 0.01 0.02 0.01 0.01
0.01 0.01 0.01 0.01 0.01 0.02 0.02 0.03 0.03 0.02 0.03 0.04 0.04 0.04 0.03 0.03 0.02 0.03 0.04 0.06 0.06 0.06 0.05 0.05 0.05 0.05 0.04 0.03 0.03 0.02 0.02 0.02 0.02 0.02 0.02 0.02 0.02 0.01
0.01 0.02 0.02 0.01 0.02 0.03 0.03 0.04 0.04 0.04 0.04 0.05 0.05 0.05 0.04 0.03 0.02 0.02 0.02 0.03 0.04 0.06 0.06 0.06 0.05 0.04 0.02 0.02 0.02 0.01 0.02 0.02 0.03 0.03 0.02 0.02 0.01 0.01
0.02 0.02 0.02 0.02 0.02 0.03 0.03 0.02 0.03 0.03 0.04 0.04 0.05 0.05 0.04 0.03 0.02 0.02 0.02 0.03 0.03 0.05 0.07 0.07 0.04 0.03 0.03 0.03 0.03 0.01 0.02 0.03 0.04 0.03 0.02 0.01 0.01 0.01
0.03 0.03 0.03 0.03 0.02 0.02 0.02 0.02 0.02 0.02 0.03 0.03 0.04 0.04 0.04 0.03 0.03 0.02 0.02 0.03 0.04 0.04 0.05 0.05 0.04 0.03 0.03 0.04 0.04 0.02 0.02 0.03 0.04 0.03 0.02 0.02 0.01 0.01
0.03 0.03 0.02 0.02 0.01 0.02 0.02 0.02 0.03 0.02 0.02 0.02 0.03 0.03 0.03 0.03 0.03 0.02 0.02 0.03 0.04 0.03 0.03 0.03 0.03 0.02 0.03 0.04 0.04 0.03 0.02 0.01 0.03 0.04 0.04 0.03 0.02 0.01
0.02 0.02 0.02 0.02 0.02 0.02 0.02 0.02 0.02 0.02 0.02 0.02 0.02 0.03 0.03 0.03 0.03 0.03 0.03 0.04 0.05 0.04 0.02 0.02 0.02 0.03 0.03 0.03 0.03 0.03 0.03 0.03 0.02 0.02 0.03 0.03 0.02 0.02
0.02 0.02 0.02 0.02 0.03 0.03 0.03 0.02 0.02 0.02 0.02 0.02 0.02 0.03 0.03 0.03 0.03 0.03 0.04 0.05 0.04 0.03 0.03 0.03 0.03 0.03 0.03 0.04 0.04 0.04 0.03 0.04 0.04 0.03 0.02 0.02 0.02 0.02
MSLP
1008.37 1007.93 1007.53 1007.17 1006.85 1006.56 1006.30 1006.07 1005.87 1005.70 1005.58 1005.52 1005.51 1005.58 1005.69 1005.83 1005.97 1006.06 1006.09 1006.02 1005.83 1005.55 1005.18 1004.77 1004.37 1004.00 1003.71 1003.50 1003.38 1003.34 1003.34 1003.36 1003.37 1003.36 1003.33 1003.29 1003.26 1003.28
1009.16 1008.72 1008.29 1007.89 1007.51 1007.16 1006.84 1006.56 1006.32 1006.12 1005.98 1005.88 1005.85 1005.88 1005.95 1006.04 1006.13 1006.21 1006.23 1006.20 1006.09 1005.92 1005.70 1005.45 1005.19 1004.95 1004.74 1004.56 1004.40 1004.26 1004.11 1003.94 1003.74 1003.53 1003.31 1003.11 1002.95 1002.88
1009.89 1009.45 1009.01 1008.58 1008.17 1007.79 1007.44 1007.13 1006.87 1006.65 1006.48 1006.36 1006.29 1006.26 1006.27 1006.29 1006.32 1006.34 1006.33 1006.30 1006.24 1006.15 1006.04 1005.92 1005.81 1005.69 1005.57 1005.43 1005.27 1005.07 1004.82 1004.52 1004.18 1003.81 1003.45 1003.13 1002.87 1002.72
1010.49 1010.06 1009.62 1009.18 1008.77 1008.38 1008.02 1007.71 1007.43 1007.21 1007.02 1006.87 1006.76 1006.68 1006.61 1006.56 1006.50 1006.45 1006.39 1006.33 1006.27 1006.23 1006.20 1006.18 1006.17 1006.16 1006.13 1006.06 1005.93 1005.72 1005.44 1005.07 1004.65 1004.19 1003.74 1003.34 1003.02 1002.81
1010.94 1010.52 1010.09 1009.67 1009.26 1008.87 1008.52 1008.21 1007.94 1007.71 1007.52 1007.35 1007.20 1007.07 1006.93 1006.80 1006.66 1006.52 1006.40 1006.29 1006.22 1006.18 1006.19 1006.24 1006.32 1006.39 1006.45 1006.45 1006.38 1006.21 1005.93 1005.57 1005.13 1004.65 1004.17 1003.74 1003.38 1003.13
1011.26 1010.84 1010.43 1010.01 1009.62 1009.25 1008.91 1008.61 1008.34 1008.12 1007.91 1007.73 1007.55 1007.37 1007.19 1006.98 1006.77 1006.57 1006.37 1006.21 1006.11 1006.06 1006.09 1006.17 1006.29 1006.44 1006.57 1006.64 1006.64 1006.54 1006.33 1006.01 1005.62 1005.17 1004.71 1004.29 1003.92 1003.65
1011.45 1011.04 1010.63 1010.23 1009.85 1009.50 1009.17 1008.87 1008.61 1008.38 1008.17 1007.98 1007.78 1007.57 1007.35 1007.10 1006.84 1006.58 1006.34 1006.13 1005.99 1005.92 1005.94 1006.03 1006.18 1006.37 1006.56 1006.71 1006.78 1006.76 1006.64 1006.41 1006.10 1005.72 1005.32 1004.93 1004.59 1004.31
1011.55 1011.15 1010.76 1010.37 1010.00 1009.65 1009.33 1009.03 1008.77 1008.53 1008.31 1008.10 1007.89 1007.67 1007.43 1007.16 1006.88 1006.59 1006.32 1006.08 1005.91 1005.81 1005.81 1005.89 1006.05 1006.26 1006.49 1006.69 1006.84 1006.91 1006.89 1006.76 1006.55 1006.26 1005.94 1005.60 1005.29 1005.01
1011.62 1011.23 1010.85 1010.48 1010.11 1009.77 1009.44 1009.13 1008.85 1008.60 1008.36 1008.14 1007.93 1007.70 1007.46 1007.20 1006.91 1006.62 1006.34 1006.08 1005.89 1005.77 1005.74 1005.80 1005.95 1006.16 1006.40 1006.64 1006.85 1006.99 1007.06 1007.03 1006.91 1006.73 1006.48 1006.21 1005.93 1005.67
1011.68 1011.31 1010.94 1010.58 1010.23 1009.88 1009.54 1009.21 1008.91 1008.64 1008.39 1008.16 1007.94 1007.72 1007.48 1007.23 1006.97 1006.68 1006.41 1006.15 1005.94 1005.80 1005.74 1005.77 1005.89 1006.07 1006.31 1006.56 1006.79 1006.99 1007.12 1007.17 1007.14 1007.04 1006.88 1006.67 1006.44 1006.20
1011.76 1011.41 1011.06 1010.72 1010.37 1010.01 1009.66 1009.31 1008.99 1008.69 1008.43 1008.18 1007.96 1007.75 1007.54 1007.31 1007.06 1006.80 1006.53 1006.28 1006.06 1005.89 1005.80 1005.78 1005.85 1006.00 1006.19 1006.43 1006.66 1006.87 1007.04 1007.15 1007.18 1007.15 1007.06 1006.91 1006.73 1006.54
1011.86 1011.53 1011.20 1010.86 1010.51 1010.15 1009.79 1009.43 1009.09 1008.77 1008.49 1008.25 1008.03 1007.83 1007.63 1007.42 1007.20 1006.96 1006.70 1006.45 1006.21 1006.02 1005.88 1005.81 1005.82 1005.90 1006.04 1006.23 1006.43 1006.63 1006.81 1006.94 1007.02 1007.04 1007.00 1006.92 1006.80 1006.66
1011.95 1011.64 1011.32 1010.99 1010.64 1010.27 1009.90 1009.53 1009.18 1008.86 1008.58 1008.33 1008.12 1007.94 1007.76 1007.57 1007.37 1007.14 1006.89 1006.63 1006.37 1006.14 1005.95 1005.81 1005.75 1005.76 1005.83 1005.95 1006.10 1006.27 1006.43 1006.56 1006.66 1006.72 1006.73 1006.72 1006.66 1006.59
1012.01 1011.70 1011.37 1011.03 1010.68 1010.31 1009.93 1009.57 1009.22 1008.91 1008.64 1008.41 1008.22 1008.05 1007.90 1007.73 1007.54 1007.32 1007.07 1006.79 1006.51 1006.23 1005.98 1005.78 1005.64 1005.57 1005.56 1005.61 1005.70 1005.81 1005.94 1006.06 1006.17 1006.26 1006.32 1006.36 1006.39 1006.40
1011.99 1011.66 1011.32 1010.97 1010.60 1010.22 1009.85 1009.50 1009.17 1008.88 1008.64 1008.44 1008.29 1008.15 1008.02 1007.87 1007.70 1007.48 1007.22 1006.92 1006.60 1006.27 1005.97 1005.70 1005.49 1005.34 1005.25 1005.23 1005.26 1005.33 1005.42 1005.52 1005.64 1005.75 1005.86 1005.97 1006.07 1006.16
1011.87 1011.51 1011.14 1010.76 1010.38 1010.00 1009.64 1009.31 1009.01 1008.77 1008.57 1008.43 1008.31 1008.22 1008.11 1007.99 1007.82 1007.60 1007.32 1007.00 1006.64 1006.27 1005.91 1005.58 1005.31 1005.09 1004.95 1004.86 1004.84 1004.87 1004.94 1005.04 1005.16 1005.30 1005.45 1005.62 1005.80 1005.98
1011.66 1011.25 1010.85 1010.44 1010.05 1009.67 1009.33 1009.03 1008.78 1008.59 1008.46 1008.37 1008.31 1008.26 1008.19 1008.08 1007.91 1007.68 1007.39 1007.03 1006.64 1006.22 1005.82 1005.44 1005.11 1004.86 1004.66 1004.55 1004.50 1004.51 1004.57 1004.68 1004.82 1004.99 1005.20 1005.42 1005.67 1005.92
1011.37 1010.93 1010.49 1010.07 1009.66 1009.30 1008.99 1008.73 1008.54 1008.42 1008.35 1008.33 1008.32 1008.31 1008.27 1008.17 1008.00 1007.76 1007.44 1007.05 1006.61 1006.15 1005.71 1005.29 1004.93 1004.65 1004.44 1004.31 1004.26 1004.27 1004.35 1004.48 1004.66 1004.88 1005.13 1005.41 1005.71 1006.02
1011.07 1010.61 1010.15 1009.72 1009.33 1008.99 1008.72 1008.52 1008.39 1008.34 1008.34 1008.37 1008.41 1008.43 1008.41 1008.31 1008.13 1007.85 1007.49 1007.06 1006.58 1006.08 1005.60 1005.15 1004.77 1004.47 1004.25 1004.13 1004.10 1004.15 1004.26 1004.44 1004.66 1004.93 1005.23 1005.56 1005.91 1006.25
1010.81 1010.35 1009.90 1009.49 1009.13 1008.83 1008.62 1008.48 1008.42 1008.43 1008.48 1008.56 1008.64 1008.68 1008.65 1008.53 1008.31 1007.99 1007.58 1007.09 1006.56 1006.01 1005.48 1005.01 1004.61 1004.30 1004.10 1004.00 1004.00 1004.09 1004.25 1004.48 1004.77 1005.09 1005.45 1005.82 1006.20 1006.57
1010.66 1010.22 1009.81 1009.44 1009.13 1008.90 1008.75 1008.68 1008.68 1008.74 1008.84 1008.95 1009.03 1009.06 1009.00 1008.84 1008.57 1008.18 1007.70 1007.14 1006.54 1005.94 1005.37 1004.86 1004.44 1004.13 1003.94 1003.86 1003.90 1004.04 1004.26 1004.55 1004.90 1005.28 1005.68 1006.10 1006.51 1006.89
1010.63 1010.25 1009.90 1009.60 1009.36 1009.20 1009.12 1009.12 1009.18 1009.28 1009.40 1009.51 1009.58 1009.57 1009.45 1009.23 1008.87 1008.41 1007.84 1007.20 1006.53 1005.87 1005.24 1004.70 1004.26 1003.94 1003.76 1003.70 1003.78 1003.96 1004.23 1004.58 1004.98 1005.42 1005.87 1006.32 1006.75 1007.14
1010.76 1010.45 1010.17 1009.95 1009.80 1009.72 1009.71 1009.76 1009.86 1009.99 1010.11 1010.20 1010.22 1010.15 1009.96 1009.64 1009.19 1008.63 1007.97 1007.25 1006.51 1005.78 1005.11 1004.53 1004.07 1003.74 1003.56 1003.52 1003.62 1003.84 1004.16 1004.55 1005.00 1005.48 1005.97 1006.45 1006.89 1007.29
Thickness
5718 5717 5716 5717 5717 5717 5717 5715 5711 5709 5712 5716 5718 5720 5719 5719 5717 5717 5717 5715 5713 5712 5711 5710 5708 5706 5705 5703 5702 5701 5700 5699 5698 5697 5696 5694 5693 5692
5713 5711 5710 5712 5712 5713 5713 5712 5711 5709 5707 5711 5711 5714 5713 5714 5711 5711 5711 5710 5708 5707 5706 5704 5702 5701 5699 5697 5696 5695 5694 5693 5692 5691 5690 5689 5688 5687
5709 5707 5706 5706 5707 5708 5708 5708 5707 5706 5702 5704 5707 5707 5704 5705 5706 5706 5706 5705 5704 5702 5700 5698 5697 5695 5692 5691 5689 5688 5687 5686 5686 5685 5684 5682 5682 5681
5704 5703 5702 5703 5701 5702 5702 5703 5702 5701 5699 5697 5698 5699 5697 5698 5698 5699 5700 5701 5699 5696 5694 5692 5690 5688 5686 5685 5683 5681 5680 5680 5679 5678 5678 5677 5676 5675
5699 5698 5698 5697 5696 5697 5696 5697 5697 5698 5696 5694 5693 5693 5693 5693 5691 5692 5693 5692 5692 5690 5687 5684 5683 5681 5679 5678 5676 5675 5674 5673 5672 5672 5671 5671 5670 5669
5695 5694 5693 5692 5691 5690 5690 5690 5690 5690 5690 5689 5688 5687 5686 5686 5685 5685 5684 5684 5684 5684 5681 5678 5675 5674 5673 5672 5670 5669 5667 5666 5665 5665 5665 5664 5664 5663
5690 5689 5688 5686 5684 5683 5685 5684 5684 5684 5684 5683 5682 5681 5680 5678 5679 5680 5678 5676 5676 5676 5674 5673 5672 5670 5668 5665 5664 5662 5661 5660 5659 5659 5658 5658 5658 5657
5685 5684 5683 5681 5678 5675 5674 5674 5674 5676 5676 5676 5676 5675 5673 5674 5673 5674 5672 5671 5667 5669 5668 5666 5666 5664 5663 5661 5659 5657 5654 5653 5653 5652 5652 5652 5651 5651
5680 5678 5679 5678 5673 5672 5670 5668 5667 5666 5666 5668 5668 5668 5668 5668 5666 5666 5665 5664 5662 5662 5660 5659 5659 5658 5657 5655 5652 5650 5648 5647 5646 5646 5645 5645 5645 5645
5675 5673 5671 5670 5668 5665 5664 5664 5664 5663 5662 5662 5662 5662 5662 5661 5660 5659 5657 5656 5655 5654 5653 5651 5651 5650 5650 5649 5645 5644 5642 5641 5640 5639 5639 5639 5639 5639
5670 5668 5666 5664 5659 5656 5657 5657 5657 5657 5655 5655 5654 5654 5653 5652 5652 5651 5651 5651 5648 5647 5647 5644 5643 5642 5642 5642 5640 5638 5637 5636 5635 5634 5634 5633 5633 5632
5665 5663 5657 5655 5651 5649 5650 5650 5649 5650 5651 5651 5648 5647 5647 5646 5644 5644 5645 5644 5642 5640 5641 5638 5637 5636 5634 5636 5636 5634 5633 5632 5631 5630 5629 5628 5628 5628
5661 5659 5655 5647 5644 5642 5642 5644 5642 5642 5644 5644 5644 5644 5642 5641 5640 5638 5638 5637 5636 5635 5636 5633 5632 5632 5630 5630 5630 5631 5631 5630 5628 5627 5625 5624 5623 5623
5654 5653 5648 5641 5638 5636 5636 5635 5634 5634 5638 5639 5638 5637 5636 5635 5634 5632 5630 5630 5629 5628 5628 5627 5627 5626 5625 5624 5624 5625 5626 5626 5625 5625 5624 5621 5618 5618
5647 5642 5638 5634 5632 5632 5630 5629 5628 5631 5632 5632 5632 5631 5631 5630 5628 5625 5624 5623 5622 5622 5622 5621 5621 5622 5622 5621 5621 5621 5621 5621 5621 5621 5620 5618 5617 5616
5640 5636 5631 5629 5628 5628 5627 5626 5626 5627 5626 5625 5625 5625 5624 5623 5621 5620 5618 5618 5617 5617 5617 5616 5615 5615 5616 5617 5617 5617 5617 5616 5616 5616 5615 5614 5613 5613
5633 5633 5632 5631 5628 5627 5626 5625 5623 5622 5621 5620 5619 5618 5617 5616 5615 5614 5613 5612 5611 5612 5612 5612 5611 5610 5611 5611 5611 5613 5613 5613 5612 5610 5608 5609 5610 5610
5624 5627 5626 5625 5624 5622 5621 5619 5618 5616 5615 5614 5612 5611 5611 5610 5609 5608 5608 5607 5606 5607 5607 5608 5607 5606 5606 5608 5607 5608 5608 5609 5608 5605 5604 5604 5605 5606
5619 5622 5620 5619 5618 5617 5616 5614 5613 5612 5609 5608 5606 5606 5605 5605 5604 5603 5602 5601 5601 5602 5602 5603 5602 5602 5602 5603 5605 5601 5602 5602 5601 5600 5600 5600 5601 5602
5617 5616 5614 5614 5613 5611 5610 5608 5607 5606 5604 5602 5601 5600 5600 5600 5599 5598 5597 5596 5596 5596 5597 5597 5597 5597 5597 5598 5598 5597 5593 5595 5595 5594 5595 5595 5596 5595
5612 5610 5608 5607 5606 5604 5603 5602 5600 5599 5597 5596 5595 5593 5593 5593 5593 5593 5593 5590 5589 5591 5591 5592 5593 5590 5591 5591 5591 5592 5591 5587 5587 5587 5587 5587 5589 5590
5605 5603 5602 5601 5599 5598 5596 5595 5594 5593 5591 5590 5589 5588 5587 5587 5586 5586 5586 5585 5584 5585 5586 5587 5587 5586 5585 5585 5586 5587 5586 5584 5581 5579 5578 5580 5582 5584
5599 5597 5596 5595 5593 5591 5590 5589 5588 5587 5585 5584 5582 5581 5581 5581 5580 5580 5579 5579 5579 5579 5579 5580 5582 5581 5581 5581 5581 5581 5580 5579 5578 5578 5577 5574 5573 5574